Kelso, WA

11:49 PM PDT on August 24, 2016 (GMT -0700)
Kelso-Longview

Weather History for KKLS - May, 2013

Change the Weather History Date:

Monday, May 6, 2013

  Actual Average Record
Temperature  
Mean Temperature 62 °F -  
Max Temperature 78 °F 60 °F 80 °F (2016)
Min Temperature 46 °F 41 °F 35 °F (2000)
Degree Days  
Heating Degree Days 3    
Growing Degree Days 12 (Base 50)    
Moisture  
Dew Point 47 °F    
Average Humidity 62    
Maximum Humidity 82    
Minimum Humidity 34    
Precipitation  
Precipitation 0.00 in - - ()
Sea Level Pressure  
Sea Level Pressure 29.84 in    
Wind  
Wind Speed 2 mph (WNW)    
Max Wind Speed 8 mph    
Max Gust Speed -    
Visibility 10 miles    
Events      
Averages and records for this station are not official NWS values.
T = Trace of Precipitation, MM = Missing Value Source: NWS Daily Summary

Daily Weather History Graph

Daily Weather History Graph

Search for Another Location

Airport or City:

Trip Planner

Search our weather history database for the weather conditions in past years. The results will help you decide how hot, cold, wet, or windy it might be!

Date:

Astronomy

May. 06, 2013 Rise Set
Actual Time 5:50 AM PDT 8:26 PM PDT
Civil Twilight 5:16 AM PDT 9:00 PM PDT
Nautical Twilight 4:33 AM PDT 9:43 PM PDT
Astronomical Twilight 3:44 AM PDT 10:33 PM PDT
Moon 4:05 AM PDT (5/6) 5:23 PM PDT (5/6)
Length of Visible Light 15h 44m
Length of Day
14h 36m
Waning Crescent, 10% of the Moon is Illuminated
May 6
Waning Crescent
May 9
New
May 17
First Quarter
May 24
Full
May 31
Last Quarter

Hourly Weather History & Observations

Time (PDT) Temp. Dew Point Humidity Pressure Visibility Wind Dir Wind Speed Gust Speed Precip Events Conditions
12:15 AM 57.2 °F 44.6 °F 63% 29.81 in 10.0 mi Calm Calm - N/A   Clear
12:35 AM 55.4 °F 44.6 °F 67% 29.81 in 10.0 mi Calm Calm - N/A   Clear
12:55 AM 53.6 °F 44.6 °F 72% 29.81 in 10.0 mi Calm Calm - N/A   Clear
1:15 AM 55.4 °F 44.6 °F 67% 29.81 in 10.0 mi Calm Calm - N/A   Clear
1:35 AM 53.6 °F 44.6 °F 72% 29.81 in 10.0 mi Calm Calm - N/A   Clear
1:55 AM 53.6 °F 44.6 °F 72% 29.81 in 10.0 mi Calm Calm - N/A   Clear
2:15 AM 51.8 °F 42.8 °F 71% 29.81 in 10.0 mi Calm Calm - N/A   Clear
2:35 AM 51.8 °F 42.8 °F 71% 29.81 in 10.0 mi West 3.5 mph - N/A   Clear
2:55 AM 51.8 °F 41.0 °F 67% 29.82 in 10.0 mi Calm Calm - N/A   Clear
3:15 AM 51.8 °F 42.8 °F 71% 29.82 in 10.0 mi Calm Calm - N/A   Clear
3:35 AM 51.8 °F 42.8 °F 71% 29.82 in 10.0 mi Calm Calm - N/A   Clear
3:55 AM 51.8 °F 42.8 °F 71% 29.83 in 10.0 mi North 3.5 mph - N/A   Clear
4:15 AM 48.2 °F 42.8 °F 82% 29.83 in 10.0 mi Calm Calm - N/A   Clear
4:35 AM 48.2 °F 42.8 °F 82% 29.84 in 10.0 mi Calm Calm - N/A   Clear
4:55 AM 50.0 °F 42.8 °F 76% 29.84 in 10.0 mi Calm Calm - N/A   Clear
5:15 AM 48.2 °F 42.8 °F 82% 29.84 in 10.0 mi North 3.5 mph - N/A   Clear
5:35 AM 48.2 °F 42.8 °F 82% 29.85 in 10.0 mi Calm Calm - N/A   Clear
5:55 AM 48.2 °F 42.8 °F 82% 29.86 in 10.0 mi Calm Calm - N/A   Clear
6:15 AM 46.4 °F 41.0 °F 81% 29.86 in 10.0 mi Calm Calm - N/A   Clear
6:35 AM 48.2 °F 42.8 °F 82% 29.87 in 10.0 mi Calm Calm - N/A   Clear
6:55 AM 48.2 °F 42.8 °F 82% 29.87 in 10.0 mi Calm Calm - N/A   Clear
7:15 AM 51.8 °F 44.6 °F 76% 29.88 in 10.0 mi Calm Calm - N/A   Clear
7:35 AM 53.6 °F 44.6 °F 72% 29.88 in 10.0 mi Calm Calm - N/A   Clear
7:55 AM 53.6 °F 46.4 °F 77% 29.89 in 10.0 mi Calm Calm - N/A   Clear
8:15 AM 53.6 °F 46.4 °F 77% 29.89 in 10.0 mi Calm Calm - N/A   Clear
8:35 AM 55.4 °F 46.4 °F 72% 29.89 in 10.0 mi Calm Calm - N/A   Clear
8:55 AM 55.4 °F 46.4 °F 72% 29.89 in 10.0 mi Calm Calm - N/A   Clear
9:15 AM 57.2 °F 48.2 °F 72% 29.89 in 10.0 mi Calm Calm - N/A   Clear
9:35 AM 59.0 °F 48.2 °F 67% 29.89 in 10.0 mi Calm Calm - N/A   Clear
9:55 AM 60.8 °F 48.2 °F 63% 29.89 in 10.0 mi WNW 3.5 mph - N/A   Clear
10:15 AM 62.6 °F 48.2 °F 59% 29.89 in 10.0 mi Calm Calm - N/A   Clear
10:35 AM 62.6 °F 50.0 °F 63% 29.89 in 10.0 mi Calm Calm - N/A   Clear
10:55 AM 64.4 °F 48.2 °F 56% 29.89 in 10.0 mi Calm Calm - N/A   Clear
11:15 AM 66.2 °F 50.0 °F 56% 29.88 in 10.0 mi Calm Calm - N/A   Clear
11:35 AM 68.0 °F 51.8 °F 56% 29.87 in 10.0 mi Calm Calm - N/A   Clear
11:55 AM 69.8 °F 51.8 °F 53% 29.87 in 10.0 mi Calm Calm - N/A   Clear
12:15 PM 71.6 °F 51.8 °F 50% 29.86 in 10.0 mi Calm Calm - N/A   Clear
12:35 PM 71.6 °F 51.8 °F 50% 29.85 in 10.0 mi Calm Calm - N/A   Clear
12:55 PM 73.4 °F 51.8 °F 47% 29.85 in 10.0 mi Calm Calm - N/A   Clear
1:15 PM 73.4 °F 51.8 °F 47% 29.84 in 10.0 mi West 4.6 mph - N/A   Clear
1:35 PM 75.2 °F 48.2 °F 38% 29.83 in 10.0 mi West 4.6 mph - N/A   Clear
1:55 PM 77.0 °F 50.0 °F 39% 29.83 in 10.0 mi West 5.8 mph - N/A   Clear
2:15 PM 78.8 °F 48.2 °F 34% 29.83 in 10.0 mi West 6.9 mph - N/A   Clear
2:35 PM 78.8 °F 51.8 °F 39% 29.82 in 10.0 mi West 6.9 mph - N/A   Clear
2:55 PM 78.8 °F 51.8 °F 39% 29.81 in 10.0 mi West 8.1 mph - N/A   Clear
3:15 PM 78.8 °F 53.6 °F 42% 29.81 in 10.0 mi WNW 6.9 mph - N/A   Clear
3:55 PM 75.2 °F 53.6 °F 47% 29.80 in 10.0 mi West 6.9 mph - N/A   Clear
4:15 PM 75.2 °F 53.6 °F 47% 29.80 in 10.0 mi West 5.8 mph - N/A   Clear
4:35 PM 73.4 °F 51.8 °F 47% 29.80 in 10.0 mi West 8.1 mph - N/A   Clear
4:55 PM 73.4 °F 51.8 °F 47% 29.80 in 10.0 mi WNW 5.8 mph - N/A   Clear
5:15 PM 73.4 °F 51.8 °F 47% 29.80 in 10.0 mi West 5.8 mph - N/A   Clear
5:35 PM 73.4 °F 51.8 °F 47% 29.80 in 10.0 mi WNW 5.8 mph - N/A   Clear
5:55 PM 71.6 °F 51.8 °F 50% 29.81 in 10.0 mi WNW 5.8 mph - N/A   Clear
6:15 PM 71.6 °F 51.8 °F 50% 29.80 in 10.0 mi WNW 4.6 mph - N/A   Clear
6:35 PM 69.8 °F 50.0 °F 49% 29.81 in 10.0 mi WNW 6.9 mph - N/A   Clear
6:55 PM 68.0 °F 50.0 °F 52% 29.81 in 10.0 mi WNW 6.9 mph - N/A   Clear
7:15 PM 66.2 °F 48.2 °F 52% 29.81 in 10.0 mi WNW 6.9 mph - N/A   Clear
7:35 PM 66.2 °F 48.2 °F 52% 29.82 in 10.0 mi WNW 4.6 mph - N/A   Clear
7:55 PM 64.4 °F 48.2 °F 56% 29.82 in 10.0 mi WNW 4.6 mph - N/A   Clear
8:15 PM 62.6 °F 46.4 °F 55% 29.83 in 10.0 mi NW 3.5 mph - N/A   Clear
8:35 PM 62.6 °F 46.4 °F 55% 29.84 in 10.0 mi NNW 3.5 mph - N/A   Clear
8:55 PM 60.8 °F 46.4 °F 59% 29.84 in 10.0 mi WNW 4.6 mph - N/A   Clear
9:15 PM 59.0 °F 46.4 °F 63% 29.85 in 10.0 mi WNW 4.6 mph - N/A   Clear
9:35 PM 57.2 °F 46.4 °F 67% 29.86 in 10.0 mi WNW 4.6 mph - N/A   Clear
9:55 PM 57.2 °F 46.4 °F 67% 29.87 in 10.0 mi WNW 4.6 mph - N/A   Clear
10:15 PM 57.2 °F 46.4 °F 67% 29.87 in 10.0 mi NW 3.5 mph - N/A   Clear
10:35 PM 55.4 °F 46.4 °F 72% 29.88 in 10.0 mi NW 3.5 mph - N/A   Clear
10:55 PM 55.4 °F 46.4 °F 72% 29.89 in 10.0 mi WNW 3.5 mph - N/A   Clear
11:15 PM 55.4 °F 46.4 °F 72% 29.90 in 10.0 mi Calm Calm - N/A   Clear
11:35 PM 53.6 °F 46.4 °F 77% 29.90 in 10.0 mi NW 4.6 mph - N/A   Scattered Clouds
11:55 PM 53.6 °F 46.4 °F 77% 29.91 in 10.0 mi West 5.8 mph - N/A   Mostly Cloudy